SIA7867 VHHH-WSSS

Flight info

Callsign SIA7867
Flight time N/A
Altitude 32000
Route PECAN1D PECAN V12 EPDOS L642 EPKAL/K0920F320 L642 ESPOB/N0496F320 Q801 ESBUM/N0494F330 Q802 ELALO ELALO1A
Aircraft B77L/H-SDE1E2E3FGHIJ2J3J4J5M1RWXY/LB1D1

Departure

Time 2026-04-30 10:30
Airport Hong Kong International Airport (VHHH)

Arrival

Time N/A
Airport Singapore Changi Airport (WSSS)
Time Latitude Longitude Altitude Speed Heading
2026-04-30 10:21 22.29961 113.92333 40 ft 4 kts 168°
2026-04-30 10:21 22.29988 113.92328 39 ft 4 kts 163°
2026-04-30 10:22 22.30006 113.92318 40 ft 2 kts 128°
2026-04-30 10:22 22.30018 113.92297 37 ft 4 kts 103°
2026-04-30 10:22 22.30019 113.92271 41 ft 4 kts 72°
2026-04-30 10:22 22.30009 113.92245 38 ft 2 kts 70°
2026-04-30 10:23 22.30009 113.92243 38 ft 0 kts 71°
2026-04-30 10:24 22.30010 113.92247 41 ft 3 kts 71°
2026-04-30 10:25 22.30012 113.92254 41 ft 3 kts 71°
2026-04-30 10:25 22.30021 113.92282 39 ft 6 kts 71°
2026-04-30 10:25 22.30054 113.92385 41 ft 22 kts 71°
2026-04-30 10:25 22.30101 113.92532 41 ft 19 kts 71°
2026-04-30 10:26 22.30144 113.92663 41 ft 16 kts 70°
2026-04-30 10:26 22.30172 113.92730 41 ft 8 kts 49°
2026-04-30 10:26 22.30228 113.92736 41 ft 9 kts 342°
2026-04-30 10:26 22.30307 113.92707 41 ft 10 kts 341°
2026-04-30 10:27 22.30355 113.92702 41 ft 11 kts 10°
2026-04-30 10:27 22.30402 113.92785 41 ft 21 kts 69°
2026-04-30 10:27 22.30471 113.92998 40 ft 33 kts 71°
2026-04-30 10:27 22.30543 113.93219 40 ft 22 kts 70°
2026-04-30 10:28 22.30642 113.93296 40 ft 19 kts 356°
2026-04-30 10:28 22.30723 113.93272 39 ft 7 kts 337°
2026-04-30 10:28 22.30729 113.93227 39 ft 7 kts 249°
2026-04-30 10:28 22.30719 113.93197 39 ft 0 kts 251°
2026-04-30 10:29 22.30712 113.93176 39 ft 13 kts 251°
2026-04-30 10:29 22.30638 113.92946 40 ft 59 kts 251°
2026-04-30 10:29 22.30432 113.92309 44 ft 118 kts 250°
2026-04-30 10:29 22.30103 113.91292 42 ft 166 kts 251°
2026-04-30 10:30 22.29695 113.90022 240 ft 184 kts 253°
2026-04-30 10:30 22.29270 113.88702 726 ft 190 kts 252°
2026-04-30 10:30 22.28827 113.87333 1145 ft 196 kts 254°
2026-04-30 10:30 22.28299 113.85985 1597 ft 199 kts 240°
2026-04-30 10:31 22.27504 113.84701 1857 ft 217 kts 237°
2026-04-30 10:31 22.26553 113.83356 2052 ft 236 kts 224°
2026-04-30 10:31 22.25060 113.82499 2340 ft 253 kts 191°
2026-04-30 10:31 22.23255 113.82551 2633 ft 271 kts 162°
2026-04-30 10:32 22.21548 113.83560 2852 ft 292 kts 136°
2026-04-30 10:32 22.20245 113.85328 3020 ft 309 kts 124°
2026-04-30 10:32 22.18813 113.87162 3249 ft 333 kts 132°
2026-04-30 10:32 22.17176 113.89001 3783 ft 344 kts 134°
2026-04-30 10:33 22.15506 113.90876 4519 ft 349 kts 134°
2026-04-30 10:33 22.13835 113.92798 5220 ft 356 kts 134°
2026-04-30 10:33 22.12137 113.94779 5849 ft 364 kts 134°
2026-04-30 10:33 22.10362 113.96732 6491 ft 366 kts 142°
2026-04-30 10:34 22.08231 113.98232 7089 ft 367 kts 156°
2026-04-30 10:34 22.05849 113.99200 7820 ft 363 kts 168°
2026-04-30 10:34 22.03364 113.99800 8418 ft 368 kts 171°
2026-04-30 10:34 22.00851 114.00366 9075 ft 371 kts 171°
2026-04-30 10:35 21.98312 114.00938 9781 ft 374 kts 172°